Tracking 31027 objects as of 19-Jul-2025
HD Live streaming from Space Station
objects crossing your sky now

ASTRANIS UTILITYSAT

Track ASTRANIS UTILITYSAT now!


NORAD ID: 62454
Int'l Code: 2024-252A
Perigee: 4,174.6 km
Apogee: 67,336.3 km
Inclination: 8.8 °
Period: 1,434.1 minutes
Semi major axis: 42126 km
RCS: Unknown
Launch date: December 29, 2024
Source: United Kingdom (UK)
Launch site: AIR FORCE EASTERN TEST RANGE (AFETR)
Your satellite tracking list
STARLINK-3138
Track 1 satellite(s)




NASA's NSSDC Master Catalog

Two Line Element Set (TLE):
1 62454U 24252A   25199.12799488 -.00000017  00000-0  00000+0 0  9998
2 62454   8.7722 342.5601 7496687 214.1973  60.6626  1.00408613  2061
Source of the keplerian elements: AFSPC